Location: Vihti�l�
(61.3833°N, 23.0667°E)
Time: 14:36:08
(UTC+00:00)

N. Korean satellite - Visible Passes

Search period start: 25 February 2021 00:00
Search period end: 07 March 2021 00:00
Orbit: 451 x 503 km, 97.2° (Epoch: 24 February)

Date Brightness Start Highest point End Pass type
(mag) Time Alt. Az. Time Alt. Az. Time Alt. Az.
25 Feb 8.9 03:21:47 10° NE 03:24:43 25° E 03:27:40 10° SSE visible
25 Feb 6.7 04:54:53 10° N 04:58:14 48° WNW 05:01:37 10° SW visible
26 Feb 9.7 02:55:34 10° NE 02:57:45 16° E 02:59:56 10° SE visible
26 Feb 6.4 04:28:04 10° NNE 04:31:33 83° WNW 04:35:04 10° SSW visible
27 Feb 7.3 04:01:21 10° NNE 04:04:47 56° ESE 04:08:15 10° S visible
28 Feb 8.4 03:34:44 10° NNE 03:37:56 32° E 03:41:08 10° SSE visible
01 Mar 9.4 03:08:20 10° NE 03:10:59 20° E 03:13:39 10° SE visible
01 Mar 6.5 04:41:11 10° NNE 04:44:39 64° WNW 04:48:08 10° SSW visible
02 Mar 9.9 02:42:24 10° ENE 02:43:57 12° E 02:45:30 10° ESE visible
02 Mar 6.8 04:14:23 10° NNE 04:17:54 74° ESE 04:21:27 10° S visible
03 Mar 7.9 03:47:41 10° NNE 03:51:03 42° E 03:54:28 10° S visible
04 Mar 9.0 03:21:09 10° NE 03:24:09 25° E 03:27:10 10° SSE visible
05 Mar 9.7 02:54:52 10° NE 02:57:08 16° E 02:59:24 10° SE visible
05 Mar 6.5 04:27:24 10° NNE 04:30:56 84° WNW 04:34:30 10° SSW visible
06 Mar 7.3 04:00:37 10° NNE 04:04:07 56° ESE 04:07:39 10° S visible
